Voltar ao catálogo

STARLINK-11457

AtivoComunicaçõesVLEO
NORAD 62919·PAYLOAD·🇺🇸 United States

Lançado Feb 8, 2025 de Cape Canaveral Space Force Station

Loading…

Próximas Passagens (próximas 24 horas)

TLE

AtualizadoSource: CelesTrak SupGP

Época: Sep 15, 2026, 03:18 UTC

1 62919C 25027N   26258.13798611  .00042368  00000+0  32889-3 0  2585
2 62919  43.0004 285.3876 0001560 250.5101  23.1160 15.70830797    16

Acompanhe STARLINK-11457 em tempo real com AllMySat

Download on the App Store